Location: L�Ave Maria
(50.7161°N, 1.5911°E)
Time: 12:35:33
(UTC+00:00)

USA 215 - Pass Details

Date: 10 July 2020
Orbit: 1102 x 1106 km, 123.0° (Epoch: 31 July)

Event Time Altitude Azimuth Distance (km) Brightness Sun altitude
Rises 22:33:54 0° 57° (ENE) 3,927 6.3 -14.8°
Reaches altitude 10° 22:36:25 10° 61° (ENE) 2,966 5.6 -15.0°
Maximum altitude 22:42:56 64° 142° (SE) 1,208 3.2 -15.3°
Drops below altitude 10° 22:49:24 10° 224° (SW) 2,955 5.2 -15.6°
Sets 22:51:55 0° 227° (SW) 3,910 5.9 -15.7°
